Home   Weather   St. Wendel   Past weeks

Flag for Germany Past Weather in St. Wendel, Saarland, Germany — Yesterday and Last 2 Weeks

Now
34 °F

Clear.


Feels Like: 28 °F
Forecast: 38 / 47 °F
Wind: 7 mph from East

Location: Saarbruecken / Ensheim

Current Time: Apr 24, 2017 at 3:34:48 am

Latest Report: Apr 24, 2017 at 2:50 am


Visibility: N/A

Pressure: 30.15 "Hg

Humidity: 75%

Dew Point: 27 °F

Location of St. WendelLocation

Past Weather in St. Wendel — Graph

°F

St. Wendel Temperature Yesterday

Maximum temperature yesterday: 54 °F (at 4:20 pm)
Minimum temperature yesterday: 32 °F (at 5:50 am)
Average temperature yesterday: 44 °F

High & Low Weather Summary for the Past Weeks

 TemperatureHumidityPressure
High73 °F (Apr 9, 5:20 pm)100% (Apr 16, 5:50 am)30.57 "Hg (Apr 16, 5:50 am)
Low27 °F (Apr 20, 6:20 am)27% (Apr 9, 5:50 pm)29.95 "Hg (Apr 13, 2:20 am)
Average47 °F64%30.20 "Hg
* Reported Apr 9 2:20 am — Apr 24 2:20 am, St. Wendel, Weather by CustomWeather, © 2017

Note: Actual official high and low records may vary slightly from our data, if they occured in-between our weather recording intervals... More about our weather records

Advertising

St. Wendel Weather History for the Previous 24 Hours

Scroll right to see more
 ConditionsComfort  
Time TempWeatherWind HumidityBarometerVisibility
2:20 am
Mon, Apr 24
36 °FClear.5 mph70%30.15 "HgN/A
1:50 am36 °FClear.6 mph70%30.18 "HgN/A
1:20 am37 °FClear.7 mph65%30.18 "HgN/A
12:50 am36 °FClear.6 mph70%30.18 "HgN/A
12:20 am37 °FClear.7 mph65%30.21 "HgN/A
11:50 pm
Sun, Apr 23
37 °FClear.7 mph65%30.21 "HgN/A
11:20 pm37 °FClear.7 mph65%30.21 "HgN/A
10:50 pm39 °FClear.6 mph65%30.21 "Hg10 mi
10:20 pm41 °FClear.7 mph57%30.21 "Hg10 mi
9:50 pm45 °FClear.8 mph53%30.21 "Hg10 mi
9:20 pm43 °FClear.6 mph57%30.21 "Hg10 mi
8:50 pm45 °FClear.7 mph53%30.21 "Hg10 mi
8:20 pm48 °FSunny.6 mph46%30.21 "Hg10 mi
7:50 pm52 °FSunny.3 mph41%30.21 "Hg10 mi
7:20 pm52 °FPassing clouds.5 mph35%30.21 "HgN/A
6:50 pm52 °FPassing clouds.6 mph41%30.21 "HgN/A
6:20 pm52 °FPassing clouds.6 mph38%30.21 "HgN/A
5:50 pm52 °FPassing clouds.6 mph38%30.21 "HgN/A
5:20 pm54 °FPassing clouds.6 mph35%30.21 "HgN/A
4:50 pm54 °FPassing clouds.9 mph35%30.21 "HgN/A
4:20 pm54 °FPassing clouds.8 mph35%30.21 "HgN/A
3:50 pm52 °FSunny.6 mph35%30.21 "Hg10 mi
3:20 pm52 °FSunny.6 mph38%30.24 "Hg10 mi
2:50 pm52 °FPassing clouds.7 mph38%30.24 "HgN/A
2:20 pm50 °FPassing clouds.8 mph43%30.24 "HgN/A
1:50 pm50 °FPassing clouds.9 mph43%30.24 "HgN/A
1:20 pm48 °FPassing clouds.6 mph43%30.27 "HgN/A
12:50 pm48 °FScattered clouds.5 mph46%30.27 "HgN/A
12:20 pm48 °FScattered clouds.6 mph46%30.27 "HgN/A
11:50 am45 °FScattered clouds.5 mph49%30.27 "HgN/A
11:20 am46 °FScattered clouds.8 mph46%30.27 "HgN/A
10:50 am45 °FScattered clouds.5 mph49%30.27 "HgN/A
10:20 am43 °FPartly sunny.8 mph53%30.27 "HgN/A
9:50 am43 °FPartly sunny.7 mph57%30.27 "HgN/A
9:20 am43 °FPartly sunny.7 mph61%30.27 "HgN/A
8:50 am43 °FPartly sunny.7 mph57%30.27 "HgN/A
8:20 am41 °FPartly sunny.2 mph70%30.27 "HgN/A
7:50 am39 °FBroken clouds.2 mph75%30.27 "HgN/A
7:20 am37 °FBroken clouds.2 mph75%30.27 "HgN/A
6:50 am32 °FBroken clouds.5 mph93%30.24 "HgN/A
6:20 am32 °FPartly cloudy.3 mph93%30.24 "HgN/A
5:50 am32 °FClear.1 mph87%30.24 "Hg10 mi
5:20 am34 °FClear.1 mph87%30.24 "Hg10 mi
4:50 am34 °FClear.3 mph81%30.24 "Hg10 mi
4:20 am34 °FClear.3 mph87%30.24 "Hg10 mi
3:50 am36 °FClear.3 mph81%30.24 "Hg10 mi
3:20 am37 °FClear.5 mph70%30.24 "HgN/A
Weather by CustomWeather, © 2017

See weather overviewHow to use our weather pages